Weather History for Southeast Shoal, ON

Change the Weather History Date:

Tuesday, November 13, 2012

  Actual Average Record
Temperature  
Mean Temperature 36 °F -  
Max Temperature 37 °F - - ()
Min Temperature 35 °F - - ()
Degree Days  
Heating Degree Days 29    
Moisture  
Dew Point 24 °F    
Average Humidity 60    
Maximum Humidity 67    
Minimum Humidity 46    
Precipitation  
Precipitation 0.00 in - - ()
Sea Level Pressure  
Sea Level Pressure 30.44 in    
Wind  
Wind Speed - ()    
Max Wind Speed -    
Max Gust Speed -    
T = Trace of Precipitation, MM = Missing Value Source: Averaged Metar Reports

Daily Weather History Graph

Daily Weather History Graph

Search for Another Location

Airport:

Trip Planner

Search our weather history database for the weather conditions in past years. The results will help you decide how hot, cold, wet, or windy it might be!

Date:

Astronomy

Nov. 13, 2012 Rise Set
Actual Time 7:17 AM EST 5:10 PM EST
Civil Twilight 6:47 AM EST 5:40 PM EST
Nautical Twilight 6:14 AM EST 6:13 PM EST
Astronomical Twilight 5:41 AM EST 6:46 PM EST
Moon 6:54 AM EST (11/13) 5:02 PM EST (11/13)
Length of Visible Light 10h 52m
Length of Day
9h 52m
Waning Crescent, 0% of the Moon is Illuminated
Nov 13
Waning Crescent
Nov 13
New
Nov 20
First Quarter
Nov 28
Full
Dec 6
Last Quarter

Hourly Weather History & Observations

Time (EST) Temp. Dew Point Humidity Pressure Visibility Wind Dir Wind Speed Gust Speed Precip Events Conditions
12:00 AM 36.7 °F 25.5 °F 64% 30.30 in - North - - N/A   Unknown
1:00 AM 37 °F 25 °F 49% 30.31 in - Calm Calm - -  
1:00 AM 36.7 °F 24.8 °F 62% 30.31 in - North - - N/A   Unknown
2:00 AM 37.0 °F 26.8 °F 66% 30.32 in - North - - N/A   Unknown
3:00 AM 36.7 °F 25.0 °F 63% 30.32 in - North - - N/A   Unknown
4:00 AM 37.0 °F 27.1 °F 67% 30.33 in - North - - N/A   Unknown
6:00 AM 37.0 °F 25.3 °F 63% 30.36 in - North - - N/A   Unknown
7:00 AM 37 °F 26 °F 54% 30.39 in - Calm Calm - -  
7:00 AM 36.7 °F 26.2 °F 66% 30.39 in - North - - N/A   Unknown
8:00 AM 36.5 °F 25.5 °F 64% 30.42 in - North - - N/A   Unknown
9:00 AM 35.8 °F 25.9 °F 67% 30.44 in - North - - N/A   Unknown
10:00 AM 35.8 °F 23.5 °F 61% 30.46 in - North - - N/A   Unknown
11:00 AM 36.0 °F 23.4 °F 60% 30.48 in - North - - N/A   Unknown
12:00 PM 36.0 °F 23.9 °F 62% 30.47 in - North - - N/A   Unknown
1:00 PM 35 °F 23 °F 49% 30.47 in - Calm Calm - -  
1:00 PM 35.2 °F 23.0 °F 61% 30.47 in - North - - N/A   Unknown
2:00 PM 35.6 °F 22.1 °F 58% 30.47 in - North - - N/A   Unknown
3:00 PM 36.0 °F 22.1 °F 57% 30.47 in - North - - N/A   Unknown
4:00 PM 36.1 °F 23.4 °F 60% 30.49 in - North - - N/A   Unknown
5:00 PM 36.0 °F 23.4 °F 60% 30.50 in - North - - N/A   Unknown
6:00 PM 36.1 °F 23.2 °F 59% 30.51 in - North - - N/A   Unknown
7:00 PM 36 °F 23 °F 46% 30.51 in - Calm Calm - -  
7:00 PM 35.6 °F 22.8 °F 60% 30.51 in - North - - N/A   Unknown
8:00 PM 35.4 °F 22.1 °F 58% 30.53 in - North - - N/A   Unknown
9:00 PM 35.8 °F 22.5 °F 58% 30.54 in - North - - N/A   Unknown
10:00 PM 35.4 °F 21.2 °F 56% 30.56 in - North - - N/A   Unknown
11:00 PM 35.4 °F 21.4 °F 57% 30.56 in - North - - N/A   Unknown